Dallas Redbird, TX

9:05 PM CDT on June 24, 2017 (GMT -0500)
Redbird

Weather History for KRBD - June, 2013

Change the Weather History Date:

Sunday, June 23, 2013

  Actual Average Record
Temperature  
Mean Temperature 85 °F -  
Max Temperature 93 °F 88 °F 99 °F (1998)
Min Temperature 77 °F 69 °F 66 °F (2001)
Cooling Degree Days 20    
Growing Degree Days 35 (Base 50)    
Moisture  
Dew Point 67 °F    
Average Humidity 55    
Maximum Humidity 79    
Minimum Humidity 37    
Precipitation  
Precipitation 0.00 in - - ()
Sea Level Pressure  
Sea Level Pressure 29.91 in    
Wind  
Wind Speed 11 mph (SSE)    
Max Wind Speed 18 mph    
Max Gust Speed 28 mph    
Visibility 10 miles    
Events      
Averages and records for this station are not official NWS values.
T = Trace of Precipitation, MM = Missing Value Source: NWS Daily Summary

Daily Weather History Graph

Daily Weather History Graph

Search for Another Location

Airport or City:

Trip Planner

Search our weather history database for the weather conditions in past years. The results will help you decide how hot, cold, wet, or windy it might be!

Date:

Astronomy

Jun. 23, 2013 Rise Set
Actual Time 6:20 AM CDT 8:38 PM CDT
Civil Twilight 5:52 AM CDT 9:07 PM CDT
Nautical Twilight 5:17 AM CDT 9:42 PM CDT
Astronomical Twilight 4:38 AM CDT 10:20 PM CDT
Moon 8:57 PM CDT (6/23) 6:35 AM CDT (6/23)
Length of Visible Light 15h 15m
Length of Day
14h 18m
Full, 100% of the Moon is Illuminated
Jun 23
Full
Jun 29
Last Quarter
Jul 8
New
Jul 15
First Quarter
Jul 22
Full

Hourly Weather History & Observations

Time (CDT) Temp. Heat Index Dew Point Humidity Pressure Visibility Wind Dir Wind Speed Gust Speed Precip Events Conditions
12:53 AM 84.0 °F 87.0 °F 68.0 °F 58% 29.91 in 10.0 mi SSE 11.5 mph 17.3 mph N/A   Clear
1:53 AM 82.0 °F 84.9 °F 68.0 °F 62% 29.90 in 10.0 mi SSE 11.5 mph 21.9 mph N/A   Clear
2:53 AM 82.0 °F 84.9 °F 68.0 °F 62% 29.90 in 10.0 mi SSE 10.4 mph 18.4 mph N/A   Clear
3:53 AM 80.1 °F 82.9 °F 69.1 °F 69% 29.90 in 10.0 mi South 10.4 mph 16.1 mph N/A   Clear
4:53 AM 79.0 °F - 70.0 °F 74% 29.91 in 10.0 mi SSE 8.1 mph - N/A   Clear
5:53 AM 77.0 °F - 70.0 °F 79% 29.91 in 10.0 mi South 9.2 mph 16.1 mph N/A   Clear
6:53 AM 77.0 °F - 70.0 °F 79% 29.92 in 10.0 mi South 8.1 mph - N/A   Clear
7:53 AM 78.1 °F - 71.1 °F 79% 29.94 in 10.0 mi South 8.1 mph - N/A   Partly Cloudy
8:53 AM 80.1 °F 83.6 °F 71.1 °F 74% 29.96 in 10.0 mi South 11.5 mph 18.4 mph N/A   Partly Cloudy
9:53 AM 82.0 °F 86.3 °F 71.1 °F 69% 29.96 in 10.0 mi South 10.4 mph 19.6 mph N/A   Clear
10:53 AM 86.0 °F 91.5 °F 71.1 °F 61% 29.97 in 10.0 mi SSE 12.7 mph 18.4 mph N/A   Partly Cloudy
11:53 AM 88.0 °F 92.9 °F 70.0 °F 55% 29.96 in 10.0 mi South 6.9 mph - N/A   Partly Cloudy
12:53 PM 90.0 °F 93.6 °F 68.0 °F 48% 29.94 in 10.0 mi South 12.7 mph 24.2 mph N/A   Partly Cloudy
1:53 PM 91.0 °F 94.3 °F 66.9 °F 45% 29.92 in 10.0 mi South 8.1 mph 23.0 mph N/A   Clear
2:53 PM 93.0 °F 95.9 °F 66.0 °F 41% 29.90 in 10.0 mi South 13.8 mph 19.6 mph N/A   Clear
3:53 PM 93.9 °F 96.1 °F 64.9 °F 38% 29.88 in 10.0 mi SE 18.4 mph 27.6 mph N/A   Clear
4:53 PM 93.9 °F 95.6 °F 64.0 °F 37% 29.87 in 10.0 mi South 11.5 mph 21.9 mph N/A   Clear
5:53 PM 93.0 °F 95.0 °F 64.9 °F 39% 29.86 in 10.0 mi South 10.4 mph 17.3 mph N/A   Partly Cloudy
6:53 PM 93.0 °F 94.2 °F 63.0 °F 37% 29.86 in 10.0 mi South 11.5 mph 18.4 mph N/A   Clear
7:53 PM 91.9 °F 92.5 °F 62.1 °F 37% 29.86 in 10.0 mi SSE 9.2 mph - N/A   Clear
8:53 PM 89.1 °F 90.3 °F 64.0 °F 43% 29.86 in 10.0 mi SSE 9.2 mph - N/A   Clear
9:53 PM 87.1 °F 87.8 °F 63.0 °F 44% 29.88 in 10.0 mi SE 9.2 mph - N/A   Clear
10:53 PM 84.9 °F 85.9 °F 63.0 °F 48% 29.91 in 10.0 mi SSE 6.9 mph - N/A   Clear
11:53 PM 82.9 °F 84.6 °F 64.9 °F 54% 29.92 in 10.0 mi SSE 8.1 mph - N/A   Clear